Погода в Елани

Хотите узнать прогноз погоды в Елани? Тогда Вам сюда: Погода в Елани

Поиск расширенной информации на нашем сайте:

Полезная информация:

Новости сайта



02.01.2020
Опубликован Долгосрочный прогноз погоды по городам России и ближнего зарубежья на январь 2020 года.
Карты: Прогноз на январь и февраль 2020 года, Сравнение прогнозируемой аномалии приземной температуры воздуха на январь 2020 года по разным моделям.




Погода в Елани - сегодня

Время (UTC), дата Ветер
(°,м/с) 
Видим.   Явления Облачность Т
(°С)
Тd
(°С)
f(%) Тe
(°С)
Pmin
(гПа)
dP
(гПа)
Po
(мм)
O2
(г/м3)
Тmin Tmax R s Состояние
почвы
12 24.02.21 320 (СЗ) 20000 м    10/0 средняя, верхняя 
[Ac As|Ci fib]
-18.6 -24.8 58 -21  1041.9  -0.8  768  334           
18 24.02.21 тихо ()   20000 м    10/0 средняя 
[Ac lent]
-19.2 -23.8 67 -19  1040.3  -1  766  334           
21 24.02.21 тихо ()   20000 м    6/0 средняя, верхняя 
[Ac trans|Ci fib]
-19.8 -23.8 70 -20  1039.1  -1.2  765  334           
00 25.02.21 180 (Ю) 20000 м    8/0 средняя 
[Ac trans]
-18.4 -22.4 71 -21  1037.3  -1.7  764  332           
03 25.02.21 190 (Ю) 20000 м    10/0 средняя 
[Ac As]
-15.7 -20.3 68 -19  1035.1  -2  763  328  -20.3      равномерный
сухой снег
100% 
06 25.02.21 200 (Ю) 10 км  слаб. снег  10/10 100 м 
[Frnb|Ns]
-14.2 -17.4 77 -19  1032.6  -2.3  761  325           
09 25.02.21 210 (ЮЗ) 6-10{11}  2000 м  снег  10/10 100 м 
[Frnb|Ns]
-12 -14.6 81 -18  1028.7  -3.7  758  321           
12 25.02.21 210 (ЮЗ) 7-11{12}  2000 м  снег  10/10 100 м 
[Frnb|Ns]
-10.3 -12.7 83 -16  1023.3  -5.1  754  317           
15 25.02.21 220 (ЮЗ) 5{14}  2000 м  снег  10/10 100 м 
[Frnb|Ns]
-9.2 -11.2 85 -14  1020.5  -2.7  752  315    -9.2     
18 25.02.21 240 (ЮЗ) 6{11}  10 км  слаб. переохл. морось (гололёд){снег}  10/10 100 м 
[St]
-6.2 -7 94 -11  1018.6  -1.7  751  310           
21 25.02.21 260 (З) 10 км  снежные зёрна{морось} [диам. гололёда 1 мм]  10/10 100 м 
[St]
-3.9 -4.4 96 -7  1017.3  -1.1  750  307           
00 26.02.21 280 (З) 20000 м  {снег, морось}  10/0 средняя 
[As op]
-1 -1.3 98 -4  1016.8  -0.4  750  303           
03 26.02.21 270 (З) 20000 м    10/0 средняя 
[As op]
+0.4 +0.1 98 -2  1016.3  -0.4  750  302  -9.2    0.8  равномерный
сухой снег
100% 
06 26.02.21 250 (З) 1000 м  дымка  10/10 100 м 
[St]
+0.5 +0.3 99 -2  1016.2  0.1  750  301           
09 26.02.21 240 (ЮЗ) 1000 м  дымка  10/10 100 м 
[St]
+1.1 +0.9 99 -2  1014.9  -1.2  749  300           
12 26.02.21 240 (ЮЗ) 1000 м  дымка{морось}  10/10 100 м 
[St]
+1.9 +1.7 99 -1  1012.9  -1.9  747  299           
15 26.02.21 220 (ЮЗ) 5{10}  1000 м  дымка  10/10 100 м 
[St]
+2 +1.8 99 -1  1010.6  -2.2  746  298    +2.2  0.0     
18 26.02.21 250 (З) 6{10}  4000 м  дымка  10/0 средняя 
[As op]
+2.7 +2.5 99 1008.6  -2  744  296           
21 26.02.21 250 (З) 5{10}  20000 м    10/0 средняя 
[Ac As]
+2.9 +2.4 97 1007.5  -1  743  296           
00 27.02.21 270 (З) 20000 м    8/0 верхняя 
[Cs]
+2.7 +1.8 94 1007  -0.6  743  296           
03 27.02.21 260 (З) 20000 м    8/0 верхняя 
[Cc]
+1.4 +0.7 95 -1  1005.6  -1.4  742  297  +1.4      равномерный
мокрый или
старый снег
100% 
06 27.02.21 260 (З) 20000 м    10/0 средняя 
[Ac und]
+1.6 +0.6 93 -2  1005.7  0.1  742  297  +0.4         
09 27.02.21 260 (З) 5{11}  20000 м    10/5 600 м кучево-дожд., средняя 
[Cb cap|Ac cast]
+2.2 -0.3 84 1005.6  0.1  742  297           
12 27.02.21 270 (З) 5{11}  20000 м    10/8 300 м кучево-дожд., средняя 
[Cb cap|Ac cast]
+2.1 -0.8 81 -1  1005.5  0.1  742  297           
15 27.02.21 260 (З) 6{12}  20000 м    10/8 300 м кучево-дожд., средняя 
[Cb cap|Ac As]
+1.6 -1.3 81 -2  1005.3  -0.3  742  297    +2.5       
Время (UTC), дата Ветер
(°,м/с) 
Видим.   Явления Облачность Т
(°С)
Тd
(°С)
f(%) Тe
(°С)
Pmin
(гПа)
dP
(гПа)
Po
(мм)
O2
(г/м3)
Тmin Tmax R s Состояние
почвы

Для получения пояснительной информации подведите курсор к названию столбца.

ПОГОДА в Елани - архив

Всё, что Вы хотите узнать о погоде в Елани - удобно и подробно!

Выберите нужную дату (начиная с 1 января 2019* года) и нажмите кнопку "Найти".
Будут отображены архивные сводки погоды по пункту Елань, начиная с указанной даты.


Отображать данные в формате CSV (для использования в таблицах Excel)


Внимание! Наш архив погоды предназначен исключительно для личного некоммерческого использования в познавательных целях. Если Вам необходимы официальные справки о состоянии погоды (для производственных, юридических, коммерческих и т.п. целей), обращайтесь в органы Росгидромета.

*Примечание: данная дата относится к архиву по метеостанциям СССР (Россия, СНГ, Балтия).
Архив по метеостанциям Зарубежной Европы и Азии (кроме Китая) хранится 10 дней, по другим регионам земного шара (Китай, Африка, Америка, Австралия, Океания) - 1 день.

Елань - район местоположения метеостанции


Название, широта, долгота, высота метеостанции:
Елань 50.9°ш. 43.7°д. 132 м над ур. моря [Российская Федерация]

Дополнительная информация

В oтличие oт бoльшинства пoгoдных сайтoв мы публикуем пoдрoбную метеoинфoрмацию в детальнoм прoфессиoнальнoм фoрмате.

Характеристики температуры и влажнoсти вoздуха измеряются на высoте 2 м в тени вдали oт зданий и деревьев.
Скoрoсть ветра измеряется на высoте 10 м (на урoвне рoста челoвека скoрoсть ветра ниже в 1.5-2 раза). Если метеoстанция нахoдится в гoрoде или в лесу, тo скoрoсть ветра занижена на 2-4 м/с пo сравнению с oткрытым местoм. Скoрoсть ветра над акватoриями крупных рек и oзёр, а также на вершинах хoлмoв на 2-5 м/с выше, чем в oбычных услoвиях.
Атмoсфернoе давление в разных тoчках местнoсти мoжет значительнo oтличаться oт давления на метеoстанции, в зависимoсти oт услoвий рельефа (при пoдъёме на 10 м давление пoнижается примернo на 1 мм рт.ст.).